Weather History for Moses Lake, WA

Change the Weather History Date:

Sunday, June 10, 2012

  Actual Average Record
Temperature  
Mean Temperature 67 °F 65 °F  
Max Temperature 80 °F 79 °F 89 °F (1986)
Min Temperature 53 °F 51 °F 37 °F (1985)
Degree Days  
Heating Degree Days 0 2  
Month to date heating degree days 57 27  
Since 1 June heating degree days 57 27  
Since 1 July heating degree days 5808 5854  
Cooling Degree Days 2 2  
Month to date cooling degree days 10 20  
Year to date cooling degree days 37 45  
Since 1 June cooling degree days 10 20  
Growing Degree Days 17 (Base 50)    
Moisture  
Dew Point 37 °F    
Average Humidity 35    
Maximum Humidity 51    
Minimum Humidity 19    
Precipitation  
Precipitation 0.00 in 0.03 in 0.37 in (2006)
Month to date precipitation 0.93 0.33  
Year to date precipitation 3.82 4.35  
Sea Level Pressure  
Sea Level Pressure 30.05 in    
Wind  
Wind Speed 10 mph (SW)    
Max Wind Speed 22 mph    
Max Gust Speed 28 mph    
Visibility 10 miles    
Events      
T = Trace of Precipitation, MM = Missing Value Source: NWS Daily Summary

Daily Weather History Graph

Daily Weather History Graph

Search for Another Location

Airport:

Trip Planner

Search our weather history database for the weather conditions in past years. The results will help you decide how hot, cold, wet, or windy it might be!

Date:

Astronomy

Jun. 10, 2012 Rise Set
Actual Time 5:01 AM PDT 8:52 PM PDT
Civil Twilight 4:21 AM PDT 9:32 PM PDT
Nautical Twilight 3:27 AM PDT 10:27 PM PDT
Astronomical Twilight 2:06 AM PDT 11:48 PM PDT
Moon 12:25 AM PDT (6/10) 12:19 PM PDT (6/10)
Length of Visible Light 17h 11m
Length of Day
15h 51m
Waning Gibbous, 57% of the Moon is Illuminated
Jun 10
Waning Gibbous
Jun 11
Last Quarter
Jun 19
New
Jun 26
First Quarter
Jul 3
Full

Hourly Weather History & Observations

Time (PDT) Temp. Dew Point Humidity Pressure Visibility Wind Dir Wind Speed Gust Speed Precip Events Conditions
12:52 AM 57.0 °F 35.1 °F 44% 29.99 in 10.0 mi WNW 13.8 mph 19.6 mph N/A   Mostly Cloudy
1:52 AM 57.0 °F 36.0 °F 45% 30.00 in 10.0 mi SW 8.1 mph - N/A   Overcast
2:52 AM 57.9 °F 35.1 °F 42% 29.99 in 10.0 mi WNW 9.2 mph 21.9 mph N/A   Overcast
3:52 AM 55.9 °F 37.0 °F 49% 30.01 in 10.0 mi West 8.1 mph - N/A   Overcast
4:52 AM 55.9 °F 37.9 °F 51% 30.03 in 10.0 mi West 5.8 mph - N/A   Overcast
5:52 AM 55.9 °F 37.0 °F 49% 30.04 in 10.0 mi WSW 4.6 mph - N/A   Mostly Cloudy
6:52 AM 57.0 °F 37.9 °F 49% 30.05 in 10.0 mi WSW 6.9 mph - N/A   Overcast
7:52 AM 57.0 °F 37.9 °F 49% 30.07 in 10.0 mi SSW 9.2 mph - N/A   Mostly Cloudy
8:52 AM 63.0 °F 37.9 °F 40% 30.07 in 10.0 mi SSW 6.9 mph - N/A   Scattered Clouds
9:52 AM 64.9 °F 37.0 °F 36% 30.07 in 10.0 mi WSW 8.1 mph - N/A   Clear
10:52 AM 68.0 °F 39.0 °F 35% 30.07 in 10.0 mi SSW 15.0 mph - N/A   Clear
11:52 AM 69.1 °F 39.9 °F 35% 30.07 in 10.0 mi South 11.5 mph - N/A   Clear
12:52 PM 71.1 °F 36.0 °F 28% 30.07 in 10.0 mi South 15.0 mph 19.6 mph N/A   Clear
1:52 PM 75.0 °F 36.0 °F 24% 30.06 in 10.0 mi South 13.8 mph - N/A   Clear
2:52 PM 77.0 °F 37.0 °F 24% 30.04 in 10.0 mi South 12.7 mph - N/A   Clear
3:52 PM 78.1 °F 33.1 °F 19% 30.04 in 10.0 mi SW 10.4 mph - N/A   Clear
4:52 PM 79.0 °F 36.0 °F 21% 30.04 in 10.0 mi SSW 13.8 mph - N/A   Scattered Clouds
5:52 PM 75.9 °F 37.0 °F 24% 30.03 in 10.0 mi South 16.1 mph 24.2 mph N/A   Partly Cloudy
6:52 PM 75.0 °F 37.9 °F 26% 30.04 in 10.0 mi South 16.1 mph - N/A   Clear
7:52 PM 72.0 °F 37.9 °F 29% 30.05 in 10.0 mi South 12.7 mph - N/A   Clear
8:52 PM 68.0 °F 37.9 °F 33% 30.06 in 10.0 mi SSW 12.7 mph - N/A   Clear
9:52 PM 64.0 °F 37.9 °F 38% 30.07 in 10.0 mi SSW 6.9 mph - N/A   Clear
10:52 PM 61.0 °F 39.9 °F 46% 30.08 in 10.0 mi SSW 6.9 mph - N/A   Clear
11:52 PM 57.9 °F 39.0 °F 49% 30.09 in 10.0 mi Calm Calm - N/A   Clear